| time (UTC) | temp F | wind direction | speed MPH | gust MPH | rain 1hr in | rain 24hr in | rain mn in | humidity % | barometer mb |
| 20260505041600 | 46 | 186 | 5.0 | 9.0 | 0.06 | 0.15 | 0.01 | 93 | 993.7 |
| 20260505040055 | 46 | 153 | 4.0 | 8.0 | 0.06 | 0.14 | 0.00 | 93 | 993.9 |
| 20260505034552 | 47 | 178 | 1.0 | 4.0 | 0.07 | 0.13 | 0.13 | 92 | 994.3 |
| 20260505033052 | 47 | 167 | 4.0 | 7.0 | 0.07 | 0.11 | 0.11 | 91 | 994.3 |
| 20260505031602 | 48 | 178 | 4.0 | 9.0 | 0.05 | 0.09 | 0.09 | 89 | 994.4 |
| 20260505030050 | 48 | 187 | 4.0 | 12.0 | 0.05 | 0.08 | 0.08 | 88 | 994.9 |
| 20260505024557 | 48 | 184 | 6.0 | 15.0 | 0.04 | 0.06 | 0.06 | 87 | 995.1 |
| 20260505023048 | 49 | 162 | 11.0 | 26.0 | 0.04 | 0.04 | 0.04 | 85 | 994.9 |
| 20260505021551 | 48 | 155 | 5.0 | 11.0 | 0.04 | 0.04 | 0.04 | 82 | 995.0 |
| 20260505020046 | 50 | 158 | 5.0 | 9.0 | 0.03 | 0.03 | 0.03 | 78 | 995.3 |
| 20260505014602 | 51 | 190 | 3.0 | 9.0 | 0.02 | 0.02 | 0.02 | 72 | 995.6 |
| 20260505013046 | 53 | 188 | 5.0 | 10.0 | 0.00 | 0.00 | 0.00 | 58 | 995.4 |
| 20260505011554 | 53 | 181 | 7.0 | 14.0 | 0.00 | 0.00 | 0.00 | 56 | 994.5 |
| 20260505010042 | 53 | 163 | 6.0 | 10.0 | 0.00 | 0.00 | 0.00 | 54 | 994.0 |
| 20260505004543 | 53 | 159 | 6.0 | 12.0 | 0.00 | 0.00 | 0.00 | 53 | 994.1 |
| 20260505003040 | 53 | 153 | 9.0 | 19.0 | 0.00 | 0.00 | 0.00 | 53 | 994.5 |
| 20260505001539 | 53 | 175 | 4.0 | 15.0 | 0.00 | 0.00 | 0.00 | 52 | 994.8 |
| 20260505000050 | 54 | 125 | 8.0 | 14.0 | 0.00 | 0.00 | 0.00 | 48 | 994.8 |
| 20260504234546 | 54 | 165 | 6.0 | 13.0 | 0.00 | 0.00 | 0.00 | 48 | 994.9 |
| 20260504233055 | 54 | 161 | 5.0 | 15.0 | 0.00 | 0.00 | 0.00 | 48 | 994.5 |
| 20260504231537 | 54 | 138 | 6.0 | 12.0 | 0.00 | 0.00 | 0.00 | 48 | 994.9 |
| 20260504230036 | 54 | 178 | 6.0 | 12.0 | 0.00 | 0.00 | 0.00 | 48 | 995.1 |
| 20260504224536 | 54 | 161 | 6.0 | 11.0 | 0.00 | 0.00 | 0.00 | 48 | 995.5 |
| 20260504223044 | 55 | 157 | 6.0 | 11.0 | 0.00 | 0.00 | 0.00 | 48 | 995.6 |
| 20260504221527 | 55 | 123 | 7.0 | 12.0 | 0.00 | 0.00 | 0.00 | 45 | 996.0 |
| 20260504220023 | 55 | 156 | 7.0 | 12.0 | 0.00 | 0.00 | 0.00 | 44 | 996.3 |
| 20260504214525 | 55 | 184 | 4.0 | 14.0 | 0.00 | 0.00 | 0.00 | 45 | 996.5 |
| 20260504213033 | 55 | 169 | 5.0 | 11.0 | 0.00 | 0.00 | 0.00 | 46 | 996.5 |
| 20260504211528 | 55 | 161 | 6.0 | 18.0 | 0.00 | 0.00 | 0.00 | 47 | 996.4 |
| 20260504210018 | 55 | 166 | 10.0 | 15.0 | 0.00 | 0.00 | 0.00 | 49 | 996.7 |
| 20260504204533 | 56 | 162 | 7.0 | 15.0 | 0.00 | 0.00 | 0.00 | 48 | 997.1 |
| 20260504203021 | 56 | 179 | 5.0 | 10.0 | 0.00 | 0.00 | 0.00 | 47 | 997.2 |
| 20260504201513 | 57 | 184 | 4.0 | 9.0 | 0.00 | 0.00 | 0.00 | 44 | 997.3 |
| 20260504200011 | 57 | 196 | 2.0 | 8.0 | 0.00 | 0.00 | 0.00 | 43 | 997.4 |
| 20260504194509 | 58 | 182 | 2.0 | 6.0 | 0.00 | 0.00 | 0.00 | 47 | 997.6 |
| 20260504193005 | 56 | 254 | 2.0 | 9.0 | 0.00 | 0.00 | 0.00 | 51 | 997.8 |
| 20260504191502 | 54 | 170 | 3.0 | 12.0 | 0.00 | 0.00 | 0.00 | 56 | 998.0 |
| 20260504190002 | 54 | 186 | 7.0 | 15.0 | 0.00 | 0.00 | 0.00 | 54 | 998.1 |
| 20260504184600 | 54 | 165 | 4.0 | 11.0 | 0.00 | 0.00 | 0.00 | 54 | 998.0 |
| 20260504183100 | 55 | 148 | 7.0 | 12.0 | 0.00 | 0.00 | 0.00 | 54 | 998.1 |
| 20260504181600 | 53 | 155 | 5.0 | 10.0 | 0.00 | 0.00 | 0.00 | 58 | 998.1 |
| 20260504180056 | 53 | 179 | 5.0 | 13.0 | 0.00 | 0.00 | 0.00 | 57 | 998.2 |
| 20260504174557 | 52 | 177 | 4.0 | 9.0 | 0.00 | 0.00 | 0.00 | 61 | 998.3 |
| 20260504173050 | 52 | 189 | 6.0 | 11.0 | 0.00 | 0.00 | 0.00 | 61 | 998.5 |
| 20260504171550 | 51 | 171 | 6.0 | 12.0 | 0.00 | 0.00 | 0.00 | 63 | 998.7 |
| 20260504081530 | 33 | 170 | 2.0 | 4.0 | 0.00 | 0.00 | 0.00 | 69 | 1000.6 |
| 20260504050001 | 37 | 180 | 1.0 | 2.0 | 0.00 | 0.00 | 0.00 | 54 | 1001.0 |
| 20260504044606 | 37 | 180 | 0.0 | 1.0 | 0.00 | 0.00 | 0.00 | 52 | 1001.2 |